�v������,���O�C��(��),���O���x(��),�Ɠx(lx),��O�J�Z���T�[(1:�~�J),����(m/s)
2022-06-01 00:00:00,19.3,60.9,2,0.0,1
2022-06-01 00:10:00,19.3,60.3,2,0.0,1
2022-06-01 00:20:00,19.1,59.4,2,0.0,1
2022-06-01 00:30:00,19.2,59.2,2,0.0,1.5
2022-06-01 00:40:00,19.3,61.8,0,0.0,1
2022-06-01 00:50:00,19.2,61.6,2,0.0,1
2022-06-01 01:00:00,19.1,61.1,0,0.0,0
2022-06-01 01:10:00,19.2,63,0,0.0,1
2022-06-01 01:20:00,18.9,61.6,2,0.0,0.5
2022-06-01 01:30:00,19,62.7,0,0.0,1
2022-06-01 01:40:00,18.7,68.7,2,0.0,1
2022-06-01 01:50:00,18.5,72.3,2,0.0,1
2022-06-01 02:00:00,18.3,73.7,2,0.0,1
2022-06-01 02:10:00,18.1,74.7,2,0.0,0
2022-06-01 02:20:00,18.3,75.5,2,0.0,1
2022-06-01 02:30:00,17.9,76.6,0,0.0,1
2022-06-01 02:40:00,18,77.7,2,0.0,0
2022-06-01 02:50:00,17.8,77.1,2,0.0,0.5
2022-06-01 03:00:00,17.7,75.5,2,0.0,0
2022-06-01 03:10:00,17.7,74.1,2,0.0,1
2022-06-01 03:20:00,17.4,74.3,0,0.0,1
2022-06-01 03:30:00,17.6,72.1,2,0.0,1
2022-06-01 03:40:00,17.3,70.5,0,0.0,0
2022-06-01 03:50:00,17,74.6,0,0.0,1
2022-06-01 04:00:00,17.2,76,2,0.0,0
2022-06-01 04:10:00,17,74.5,2,0.0,1
2022-06-01 04:20:00,17.2,74.4,2,0.0,0
2022-06-01 04:30:00,17.1,74.5,2,0.0,0
2022-06-01 04:40:00,17,75.8,4,0.0,1
2022-06-01 04:50:00,16.8,75.8,26,0.0,0.5
2022-06-01 05:00:00,16.9,73.9,150,0.0,1
2022-06-01 05:10:00,16.5,75.7,499.84,0.0,0
2022-06-01 05:20:00,16.7,81,999.68,0.0,1
2022-06-01 05:30:00,16.5,79.5,1999.36,0.0,1
2022-06-01 05:40:00,16.7,81.6,3998.72,0.0,1
2022-06-01 05:50:00,16.6,80.7,3998.72,0.0,1
2022-06-01 06:00:00,16.7,80.8,6999.04,0.0,1
2022-06-01 06:10:00,17,77,9999.36,0.0,1.5
2022-06-01 06:20:00,17.5,71.8,10997.8,0.0,1
2022-06-01 06:30:00,17.6,65.1,13998.1,0.0,1
2022-06-01 06:40:00,17.9,65.2,13998.1,0.0,0.5
2022-06-01 06:50:00,18,68.8,16998.4,0.0,0.5
2022-06-01 07:00:00,18.5,63.3,18995.2,0.0,1
2022-06-01 07:10:00,18.6,61.8,19998.7,0.0,1
2022-06-01 07:20:00,18.7,59.6,20992,0.0,0
2022-06-01 07:30:00,19.2,57.8,22999,0.0,1
2022-06-01 07:40:00,19.6,57.3,23982.1,0.0,0.5
2022-06-01 07:50:00,20,55.9,28999.7,0.0,1
2022-06-01 08:00:00,20.5,53.6,44482.6,0.0,1
2022-06-01 08:10:00,21,51.6,36986.9,0.0,1
2022-06-01 08:20:00,21.6,49.6,46981.1,0.0,1
2022-06-01 08:30:00,22,47.5,43991,0.0,1
2022-06-01 08:40:00,22.5,43.8,39997.4,0.0,1
2022-06-01 08:50:00,22.9,40.1,33996.8,0.0,1
2022-06-01 09:00:00,22.8,41.1,32993.3,0.0,1
2022-06-01 09:10:00,23.2,40.5,37990.4,0.0,1
2022-06-01 09:20:00,23.7,38.2,33996.8,0.0,2
2022-06-01 09:30:00,23.7,41,30986.2,0.0,1
2022-06-01 09:40:00,24.1,42.2,34979.8,0.0,1
2022-06-01 09:50:00,24.8,41.6,32993.3,0.0,1
2022-06-01 10:00:00,25.2,44.8,40489,0.0,1
2022-06-01 10:10:00,23.4,58.1,47964.2,0.0,1
2022-06-01 10:20:00,22.8,62.5,39485.4,0.0,1
2022-06-01 10:30:00,22.5,65.4,34979.8,0.0,1.5
2022-06-01 10:40:00,22.9,57.6,31989.8,0.0,0.5
2022-06-01 10:50:00,24.1,57.5,33996.8,0.0,1
2022-06-01 11:00:00,23.9,59.1,33484.8,0.0,2
2022-06-01 11:10:00,23.8,60.1,30986.2,0.0,1
2022-06-01 11:20:00,23.5,62.2,27996.2,0.0,1
2022-06-01 11:30:00,23.4,62.5,27996.2,0.0,1
2022-06-01 11:40:00,23.4,63.9,28999.7,0.0,1
2022-06-01 11:50:00,23,65.1,35983.4,0.0,1
2022-06-01 12:00:00,22.8,68.2,33996.8,0.0,2
2022-06-01 12:10:00,21.2,75.8,33996.8,0.0,3
2022-06-01 12:20:00,21.5,76.3,30986.2,0.0,1
2022-06-01 12:30:00,21.4,77.1,29982.7,0.0,1
2022-06-01 12:40:00,20.8,79,29982.7,0.0,2
2022-06-01 12:50:00,20.8,80.6,26480.6,0.0,2.5
2022-06-01 13:00:00,20.4,82.6,24985.6,0.0,2.5
2022-06-01 13:10:00,20.6,82.7,31989.8,0.0,4
2022-06-01 13:20:00,20.9,81.2,29982.7,0.0,2
2022-06-01 13:30:00,21.1,79.7,30986.2,0.0,2
2022-06-01 13:40:00,21.4,80,29982.7,0.0,3
2022-06-01 13:50:00,21.1,81.7,27996.2,0.0,2
2022-06-01 14:00:00,20.8,82,30986.2,0.0,3
2022-06-01 14:10:00,21.5,80,34979.8,0.0,2.5
2022-06-01 14:20:00,21.6,78.8,33996.8,0.0,3
2022-06-01 14:30:00,21.8,76.6,31989.8,0.0,3
2022-06-01 14:40:00,22.8,70.6,34979.8,0.0,1
2022-06-01 14:50:00,23.9,67.2,33996.8,0.0,1
2022-06-01 15:00:00,24.1,65.6,21995.5,0.0,2
2022-06-01 15:10:00,25,64.2,34488.3,0.0,2
2022-06-01 15:20:00,25.5,61.4,28999.7,0.0,1
2022-06-01 15:30:00,25.5,61.7,24985.6,0.0,1
2022-06-01 15:40:00,25.9,61,23982.1,0.0,2
2022-06-01 15:50:00,25.9,61.2,25989.1,0.0,1
2022-06-01 16:00:00,26.5,59.4,36986.9,0.0,1.5
2022-06-01 16:10:00,26.5,58.8,18995.2,0.0,2.5
2022-06-01 16:20:00,25.9,60.6,20992,0.0,1.5
2022-06-01 16:30:00,26.1,59.4,28999.7,0.0,1
2022-06-01 16:40:00,26.5,56.9,33484.8,0.0,1
2022-06-01 16:50:00,27,55.4,41984,0.0,1
2022-06-01 17:00:00,26.3,57.9,12994.6,0.0,2
2022-06-01 17:10:00,25.5,59.4,13998.1,0.0,1
2022-06-01 17:20:00,25.5,60.5,13998.1,0.0,2
2022-06-01 17:30:00,25.5,59.2,26992.6,0.0,2
2022-06-01 17:40:00,25.6,59.8,13998.1,0.0,1
2022-06-01 17:50:00,26.1,59.6,16998.4,0.0,1
2022-06-01 18:00:00,25.4,62.6,11991,0.0,2.5
2022-06-01 18:10:00,24.6,64.2,17991.7,0.0,2
2022-06-01 18:20:00,24.4,64.4,9999.36,0.0,1
2022-06-01 18:30:00,24.4,64.9,11499.5,0.0,2
2022-06-01 18:40:00,24.5,64.7,10997.8,0.0,1
2022-06-01 18:50:00,24.2,66.1,7997.44,0.0,1
2022-06-01 19:00:00,23.8,67.4,2997.76,0.0,1
2022-06-01 19:10:00,23.5,68.4,999.68,0.0,1
2022-06-01 19:20:00,23.4,69.2,451.84,0.0,2
2022-06-01 19:30:00,23.2,70.3,265.92,0.0,1
2022-06-01 19:40:00,23.3,71.1,20,0.0,1
2022-06-01 19:50:00,22.8,72.4,4,0.0,1
2022-06-01 20:00:00,22.5,73.5,2,0.0,1
2022-06-01 20:10:00,22.5,74.6,2,0.0,1
2022-06-01 20:20:00,22.3,75.2,2,0.0,0
2022-06-01 20:30:00,22.4,75.6,2,0.0,0.5
2022-06-01 20:40:00,22.3,76.1,0,0.0,0
2022-06-01 20:50:00,22.3,76.5,2,0.0,0
2022-06-01 21:00:00,22.2,77.4,2,0.0,0
2022-06-01 21:10:00,21.7,78.4,2,0.0,1
2022-06-01 21:20:00,21.7,78.9,2,0.0,1
2022-06-01 21:30:00,21.7,79.6,2,0.0,0
2022-06-01 21:40:00,21.5,80.3,2,0.0,1
2022-06-01 21:50:00,21.5,80.9,2,0.0,0
2022-06-01 22:00:00,21.3,81.7,2,0.0,2
2022-06-01 22:10:00,21.1,82.3,2,0.0,1
2022-06-01 22:20:00,20.9,83.2,2,0.0,1
2022-06-01 22:30:00,20.9,84.2,2,0.0,1.5
2022-06-01 22:40:00,20.8,84.5,2,0.0,0
2022-06-01 22:50:00,20.5,85.1,2,0.0,1
2022-06-01 23:00:00,20.6,85.4,2,0.0,1
2022-06-01 23:10:00,20.6,85.6,2,0.0,1
2022-06-01 23:20:00,20.5,86.4,2,0.0,0.5
2022-06-01 23:30:00,20.4,86.3,2,0.0,1
2022-06-01 23:40:00,20.2,86.5,2,0.0,1
2022-06-01 23:50:00,20.1,87.8,2,0.0,1
2022-06-02 00:00:00,20,88.1,2,0.0,1
2022-06-02 00:10:00,19.9,88.4,2,0.0,1
2022-06-02 00:20:00,19.8,88.5,2,0.0,0
2022-06-02 00:30:00,19.9,88.9,2,0.0,1
2022-06-02 00:40:00,19.5,89.2,0,0.0,0
2022-06-02 00:50:00,19.6,89.7,2,0.0,0.5
2022-06-02 01:00:00,19.4,90.6,2,0.0,0
2022-06-02 01:10:00,19.4,90.8,2,0.0,1
2022-06-02 01:20:00,19.3,91.6,0,0.0,1
2022-06-02 01:30:00,19.1,90.7,0,0.0,1
2022-06-02 01:40:00,19,90,2,0.0,0.5
2022-06-02 01:50:00,19.2,89,2,0.0,0
2022-06-02 02:00:00,19,89.3,2,0.0,0.5
2022-06-02 02:10:00,19,89.5,0,0.0,0
2022-06-02 02:20:00,19,90,2,0.0,0
2022-06-02 02:30:00,18.7,90.4,2,0.0,0.5
2022-06-02 02:40:00,18.8,90.5,2,0.0,1
2022-06-02 02:50:00,18.5,90.5,0,0.0,0
2022-06-02 03:00:00,18.5,90.8,2,0.0,0
2022-06-02 03:10:00,18.3,91,0,0.0,1
2022-06-02 03:20:00,18.2,92,2,0.0,1
2022-06-02 03:30:00,18.1,92.7,2,0.0,1
2022-06-02 03:40:00,18,93.5,0,0.0,0
2022-06-02 03:50:00,18,94.3,2,0.0,0
2022-06-02 04:00:00,18,94.6,2,0.0,1
2022-06-02 04:10:00,17.9,94.6,2,0.0,1
2022-06-02 04:20:00,17.7,94.8,2,0.0,1
2022-06-02 04:30:00,17.8,94.6,2,0.0,1
2022-06-02 04:40:00,17.7,94.5,14,0.0,1
2022-06-02 04:50:00,17.7,94.3,102,0.0,0.5
2022-06-02 05:00:00,17.8,94.4,472,0.0,0
2022-06-02 05:10:00,17.6,94.3,999.68,0.0,1
2022-06-02 05:20:00,17.6,94.6,1999.36,0.0,1
2022-06-02 05:30:00,17.6,94,2997.76,0.0,0.5
2022-06-02 05:40:00,17.6,93.4,4999.68,0.0,1
2022-06-02 05:50:00,18.1,92.3,5995.52,0.0,1
2022-06-02 06:00:00,18.5,89.8,7997.44,0.0,0.5
2022-06-02 06:10:00,18.7,87.5,9999.36,0.0,1
2022-06-02 06:20:00,18.9,87.1,11991,0.0,1
2022-06-02 06:30:00,18.8,86.8,12994.6,0.0,1
2022-06-02 06:40:00,18.8,86.6,13998.1,0.0,1
2022-06-02 06:50:00,19.3,85,14991.4,0.0,1
2022-06-02 07:00:00,19.7,83.4,15994.9,0.0,1
2022-06-02 07:10:00,19.9,81.8,16998.4,0.0,1
2022-06-02 07:20:00,20.1,79.9,17991.7,0.0,0.5
2022-06-02 07:30:00,20.8,78.4,18995.2,0.0,1
2022-06-02 07:40:00,21.3,76,19998.7,0.0,1
2022-06-02 07:50:00,21.4,74.9,21995.5,0.0,1
2022-06-02 08:00:00,22,73.2,52961.3,0.0,1
2022-06-02 08:10:00,22.3,72.1,74997.8,0.0,1
2022-06-02 08:20:00,23.1,69.7,74997.8,0.0,1
2022-06-02 08:30:00,23.1,69.9,75980.8,0.0,1
2022-06-02 08:40:00,22.9,69.5,75980.8,0.0,1
2022-06-02 08:50:00,23.2,69.6,74997.8,0.0,2
2022-06-02 09:00:00,22.9,70.7,73973.8,0.0,2
2022-06-02 09:10:00,23.2,69.1,72990.7,0.0,2
2022-06-02 09:20:00,24,67.1,50995.2,0.0,0.5
2022-06-02 09:30:00,24.7,64,63979.5,0.0,1
2022-06-02 09:40:00,24.1,66.9,27484.2,0.0,2
2022-06-02 09:50:00,24.5,67.2,49971.2,0.0,2
2022-06-02 10:00:00,24.5,66,46981.1,0.0,2
2022-06-02 10:10:00,24.5,65.6,42967,0.0,1
2022-06-02 10:20:00,23.9,68.4,16998.4,0.0,2
2022-06-02 10:30:00,24.7,65,36495.4,0.0,2
2022-06-02 10:40:00,25.4,62.8,35491.8,0.0,1
2022-06-02 10:50:00,25.6,61.1,35491.8,0.0,1
2022-06-02 11:00:00,26.6,57.9,28999.7,0.0,2
2022-06-02 11:10:00,26.5,57.7,31989.8,0.0,2
2022-06-02 11:20:00,26.1,57.6,24985.6,0.0,1.5
2022-06-02 11:30:00,26.6,57.7,31989.8,0.0,2
2022-06-02 11:40:00,26.8,57.9,27996.2,0.0,2
2022-06-02 11:50:00,26.1,58,27996.2,0.0,3
2022-06-02 12:00:00,26.5,57.6,27484.2,0.0,2
2022-06-02 12:10:00,26.7,55.8,27996.2,0.0,2.5
2022-06-02 12:20:00,26.4,57.1,26480.6,0.0,2
2022-06-02 12:30:00,26.5,57.1,28487.7,0.0,2.5
2022-06-02 12:40:00,26.7,56.2,27996.2,0.0,3
2022-06-02 12:50:00,26.2,58.1,28999.7,0.0,2.5
2022-06-02 13:00:00,26.6,55.4,29982.7,0.0,3
2022-06-02 13:10:00,26.2,56.9,28487.7,0.0,3
2022-06-02 13:20:00,26.8,55.9,28999.7,0.0,4
2022-06-02 13:30:00,26.5,54.8,30494.7,0.0,3.5
2022-06-02 13:40:00,27.4,53.3,29982.7,0.0,3
2022-06-02 13:50:00,26.5,55.1,30986.2,0.0,2
2022-06-02 14:00:00,25.9,56.1,30986.2,0.0,4.5
2022-06-02 14:10:00,26,56.1,30986.2,0.0,3.5
2022-06-02 14:20:00,26,57.4,30986.2,0.0,3
2022-06-02 14:30:00,26.2,57.9,31989.8,0.0,4
2022-06-02 14:40:00,26.5,56.5,32993.3,0.0,2
2022-06-02 14:50:00,26.5,57.3,32993.3,0.0,2.5
2022-06-02 15:00:00,26.2,56.3,32993.3,0.0,2
2022-06-02 15:10:00,26.7,56.9,32993.3,0.0,1
2022-06-02 15:20:00,26.6,58.7,33996.8,0.0,3
2022-06-02 15:30:00,26.3,60,32993.3,0.0,2
2022-06-02 15:40:00,25.9,62.6,33996.8,0.0,2
2022-06-02 15:50:00,24.7,68.5,32993.3,0.0,2
2022-06-02 16:00:00,23.5,73.6,32993.3,0.0,4
2022-06-02 16:10:00,23.3,73.9,33996.8,0.0,4
2022-06-02 16:20:00,22.7,76.2,32993.3,0.0,3.5
2022-06-02 16:30:00,22.7,76.2,31989.8,0.0,3.5
2022-06-02 16:40:00,23.1,75.6,31989.8,0.0,4.5
2022-06-02 16:50:00,23.1,73.9,30986.2,0.0,3.5
2022-06-02 17:00:00,23.1,73.3,29982.7,0.0,1
2022-06-02 17:10:00,23.1,73.6,27996.2,0.0,3.5
2022-06-02 17:20:00,22.6,73.1,12994.6,0.0,4
2022-06-02 17:30:00,23.3,70.1,23982.1,0.0,2
2022-06-02 17:40:00,23.5,67.8,19998.7,0.0,1
2022-06-02 17:50:00,23.9,64.9,21995.5,0.0,1
2022-06-02 18:00:00,23.6,67.8,18995.2,0.0,1
2022-06-02 18:10:00,23.5,68.2,12994.6,0.0,1.5
2022-06-02 18:20:00,24,64.6,13998.1,0.0,1
2022-06-02 18:30:00,24.2,64.8,11991,0.0,2
2022-06-02 18:40:00,23.8,67.5,5995.52,0.0,1
2022-06-02 18:50:00,23.5,68.6,4999.68,0.0,1
2022-06-02 19:00:00,23.5,68.7,2997.76,0.0,1
2022-06-02 19:10:00,23.4,69.5,1999.36,0.0,1
2022-06-02 19:20:00,23.3,69.6,999.68,0.0,1
2022-06-02 19:30:00,23.2,69.6,240,0.0,1
2022-06-02 19:40:00,23.2,68.9,40,0.0,0
2022-06-02 19:50:00,23.2,69.8,6,0.0,1
2022-06-02 20:00:00,23.3,71,2,0.0,1
2022-06-02 20:10:00,23.2,65.8,2,0.0,0
2022-06-02 20:20:00,23.3,64.2,2,0.0,0.5
2022-06-02 20:30:00,23.1,63.7,0,0.0,1
2022-06-02 20:40:00,23.2,64.7,2,0.0,1
2022-06-02 20:50:00,23.1,66.3,2,0.0,2
2022-06-02 21:00:00,23,67.9,2,0.0,0
2022-06-02 21:10:00,23,68.7,2,0.0,1
2022-06-02 21:20:00,22.8,70.2,2,0.0,1
2022-06-02 21:30:00,22.9,70.8,2,0.0,0
2022-06-02 21:40:00,22.9,71.4,0,0.0,0
2022-06-02 21:50:00,22.7,71.6,2,0.0,1
2022-06-02 22:00:00,22.8,72.1,2,0.0,1
2022-06-02 22:10:00,22.6,72.4,2,0.0,0
2022-06-02 22:20:00,22.6,72.8,0,0.0,1
2022-06-02 22:30:00,22.6,73.7,2,0.0,1
2022-06-02 22:40:00,22.6,75.4,2,0.0,1
2022-06-02 22:50:00,22.1,78.1,2,0.0,0.5
2022-06-02 23:00:00,22,79.5,2,0.0,1
2022-06-02 23:10:00,21.7,81,2,0.0,1
2022-06-02 23:20:00,21.5,81.7,2,0.0,1
2022-06-02 23:30:00,21.2,81.6,2,0.0,0.5
2022-06-02 23:40:00,21.1,80.2,0,0.0,0.5
2022-06-02 23:50:00,21.3,81.1,2,0.0,1
2022-06-03 00:00:00,21,82.2,2,0.0,1
2022-06-03 00:10:00,21.2,81.9,2,0.0,1
2022-06-03 00:20:00,21.1,81.3,2,0.0,0
2022-06-03 00:30:00,20.8,83.8,2,0.0,1
2022-06-03 00:40:00,20.5,84.5,2,0.0,1
2022-06-03 00:50:00,20.5,84.9,2,0.0,1
2022-06-03 01:00:00,20.3,85.9,2,0.0,0
2022-06-03 01:10:00,20.1,86.4,2,0.0,0
2022-06-03 01:20:00,20.1,86.6,0,0.0,0
2022-06-03 01:30:00,20.2,87,2,0.0,1
2022-06-03 01:40:00,19.9,86.5,2,0.0,0
2022-06-03 01:50:00,19.9,87,2,0.0,0.5
2022-06-03 02:00:00,19.8,87.3,2,0.0,1
2022-06-03 02:10:00,19.9,87.7,2,0.0,1
2022-06-03 02:20:00,19.7,87.9,2,0.0,1
2022-06-03 02:30:00,19.4,88.4,2,0.0,0
2022-06-03 02:40:00,19.2,88.6,2,0.0,0
2022-06-03 02:50:00,19.4,88.4,2,0.0,0
2022-06-03 03:00:00,19.2,88.4,2,0.0,1
2022-06-03 03:10:00,19.1,88.2,2,0.0,1
2022-06-03 03:20:00,19,88.8,2,0.0,0
2022-06-03 03:30:00,18.9,89.4,2,0.0,0.5
2022-06-03 03:40:00,18.8,89.3,0,0.0,1
2022-06-03 03:50:00,19.1,89,2,0.0,1
2022-06-03 04:00:00,19,89.1,2,0.0,0.5
2022-06-03 04:10:00,18.8,89.4,0,0.0,1
2022-06-03 04:20:00,18.7,90.4,2,0.0,1
2022-06-03 04:30:00,18.8,90.9,2,0.0,1
2022-06-03 04:40:00,18.5,90.3,6,0.0,1
2022-06-03 04:50:00,18.5,90.8,38,0.0,0
2022-06-03 05:00:00,18.4,90.5,220,0.0,0
2022-06-03 05:10:00,18.4,91,999.68,0.0,0
2022-06-03 05:20:00,18.3,91,1999.36,0.0,0
2022-06-03 05:30:00,18.2,90,2997.76,0.0,0
2022-06-03 05:40:00,18.5,88.8,4999.68,0.0,0
2022-06-03 05:50:00,18.8,87.8,6999.04,0.0,1
2022-06-03 06:00:00,19.1,86.4,8995.84,0.0,1
2022-06-03 06:10:00,19.2,85,9999.36,0.0,1
2022-06-03 06:20:00,19.1,85.8,11991,0.0,1
2022-06-03 06:30:00,19.4,84.1,12994.6,0.0,1
2022-06-03 06:40:00,19.2,83.3,13998.1,0.0,0
2022-06-03 06:50:00,19.8,80.6,14991.4,0.0,0.5
2022-06-03 07:00:00,20.4,77.8,15994.9,0.0,0
2022-06-03 07:10:00,20.6,76.5,16998.4,0.0,1
2022-06-03 07:20:00,20.8,74.8,16998.4,0.0,0.5
2022-06-03 07:30:00,21.3,73,17991.7,0.0,1.5
2022-06-03 07:40:00,21.4,72.7,18995.2,0.0,1
2022-06-03 07:50:00,21.8,70.1,21995.5,0.0,1
2022-06-03 08:00:00,22.2,69.7,58982.4,0.0,1
2022-06-03 08:10:00,22.4,67.8,76963.8,0.0,1
2022-06-03 08:20:00,22.9,66.1,75980.8,0.0,1
2022-06-03 08:30:00,23.2,64.6,75980.8,0.0,1
2022-06-03 08:40:00,23.1,66.1,73973.8,0.0,1
2022-06-03 08:50:00,23.4,68.7,71966.7,0.0,1
2022-06-03 09:00:00,23.2,66.9,70983.7,0.0,2
2022-06-03 09:10:00,23.4,69.2,67993.6,0.0,2
2022-06-03 09:20:00,24,65.3,65986.6,0.0,2
2022-06-03 09:30:00,23.9,66.6,60989.4,0.0,3
2022-06-03 09:40:00,23.4,70,53985.3,0.0,3
2022-06-03 09:50:00,23.4,69.7,51978.2,0.0,3
2022-06-03 10:00:00,23.4,71.2,46489.6,0.0,1.5
2022-06-03 10:10:00,23.9,70.5,42475.5,0.0,3
2022-06-03 10:20:00,24,70.4,42967,0.0,2
2022-06-03 10:30:00,25.2,62.1,37990.4,0.0,2
2022-06-03 10:40:00,25.7,61.5,42967,0.0,1
2022-06-03 10:50:00,26.3,58.1,41984,0.0,2
2022-06-03 11:00:00,27.3,54.3,30986.2,0.0,1.5
2022-06-03 11:10:00,27.5,52.9,32993.3,0.0,1
2022-06-03 11:20:00,27.7,52.3,30494.7,0.0,1
2022-06-03 11:30:00,27.6,52.1,28487.7,0.0,2
2022-06-03 11:40:00,28.2,49.7,28999.7,0.0,1
2022-06-03 11:50:00,28.7,48.3,27996.2,0.0,2
2022-06-03 12:00:00,28.6,47.4,27484.2,0.0,1
2022-06-03 12:10:00,29.9,45.7,28999.7,0.0,2
2022-06-03 12:20:00,29.8,45.4,28999.7,0.0,2
2022-06-03 12:30:00,29.5,45.8,26992.6,0.0,3
2022-06-03 12:40:00,29,46.6,28999.7,0.0,2
2022-06-03 12:50:00,28.6,53.4,28999.7,0.0,3
2022-06-03 13:00:00,28,56.9,28999.7,0.0,3
2022-06-03 13:10:00,27.7,55.5,29982.7,0.0,3
2022-06-03 13:20:00,26.9,56.7,29982.7,0.0,3
2022-06-03 13:30:00,27,56.4,29982.7,0.0,2.5
2022-06-03 13:40:00,26.7,57.4,30986.2,0.0,2
2022-06-03 13:50:00,27.7,55,29982.7,0.0,2
2022-06-03 14:00:00,27.2,55.8,30986.2,0.0,2
2022-06-03 14:10:00,27.4,54.9,31498.2,0.0,3
2022-06-03 14:20:00,27.7,52.6,31989.8,0.0,2
2022-06-03 14:30:00,27.4,53.4,30986.2,0.0,4
2022-06-03 14:40:00,27.8,51.3,31989.8,0.0,2
2022-06-03 14:50:00,27.7,50.6,31989.8,0.0,1
2022-06-03 15:00:00,28.2,50.1,32993.3,0.0,2
2022-06-03 15:10:00,28.5,49.4,32993.3,0.0,3
2022-06-03 15:20:00,28.5,48.7,32993.3,0.0,1
2022-06-03 15:30:00,28.9,47.9,32993.3,0.0,1
2022-06-03 15:40:00,29,47.7,33996.8,0.0,2
2022-06-03 15:50:00,29.4,46.4,33996.8,0.0,1
2022-06-03 16:00:00,28.6,48.4,32993.3,0.0,1
2022-06-03 16:10:00,26.7,55.4,32993.3,0.0,3
2022-06-03 16:20:00,26.2,61.9,32993.3,0.0,3
2022-06-03 16:30:00,25.1,69.8,31989.8,0.0,3.5
2022-06-03 16:40:00,24.5,70.6,30986.2,0.0,4
2022-06-03 16:50:00,24.1,73.7,29982.7,0.0,4
2022-06-03 17:00:00,24.5,71.9,28999.7,0.0,2
2022-06-03 17:10:00,24.5,72.5,26992.6,0.0,3
2022-06-03 17:20:00,24.2,73.1,25989.1,0.0,2.5
2022-06-03 17:30:00,24.5,70.6,23982.1,0.0,3
2022-06-03 17:40:00,24.7,67.2,22999,0.0,1
2022-06-03 17:50:00,24.8,67.4,20992,0.0,1
2022-06-03 18:00:00,24.8,64.2,18995.2,0.0,3
2022-06-03 18:10:00,25.1,62.8,16998.4,0.0,2
2022-06-03 18:20:00,25.5,61.5,14991.4,0.0,1.5
2022-06-03 18:30:00,25.9,57.8,11991,0.0,2
2022-06-03 18:40:00,25.8,58.1,7997.44,0.0,1
2022-06-03 18:50:00,25.5,58.3,5995.52,0.0,1
2022-06-03 19:00:00,25.3,57,2997.76,0.0,2
2022-06-03 19:10:00,24.9,58.3,1999.36,0.0,2
2022-06-03 19:20:00,24.5,60.3,999.68,0.0,2
2022-06-03 19:30:00,24.5,59.6,197.92,0.0,1.5
2022-06-03 19:40:00,24.2,60.4,34,0.0,1
2022-06-03 19:50:00,24.6,61.1,4,0.0,1
2022-06-03 20:00:00,24.3,63.2,2,0.0,0
2022-06-03 20:10:00,24.6,62.2,2,0.0,1
2022-06-03 20:20:00,24.7,61.4,2,0.0,0
2022-06-03 20:30:00,24.7,61.1,0,0.0,0
2022-06-03 20:40:00,24.4,62.6,2,0.0,1
2022-06-03 20:50:00,24.4,63,0,0.0,1
2022-06-03 21:00:00,24.3,64.2,2,0.0,2
2022-06-03 21:10:00,24.1,67.1,0,0.0,1
2022-06-03 21:20:00,23.7,70.4,2,0.0,1
2022-06-03 21:30:00,23.7,71.2,0,0.0,1
2022-06-03 21:40:00,23.4,71.2,2,0.0,1
2022-06-03 21:50:00,23.3,72.5,0,0.0,1
2022-06-03 22:00:00,23.4,72.9,0,0.0,0
2022-06-03 22:10:00,23.3,71.6,2,0.0,0
2022-06-03 22:20:00,23.1,69.5,0,0.0,0
2022-06-03 22:30:00,23.2,68.2,0,0.0,1
2022-06-03 22:40:00,23.2,67,0,0.0,0
2022-06-03 22:50:00,23.1,66.6,2,0.0,0
2022-06-03 23:00:00,23,68.4,0,0.0,1
2022-06-03 23:10:00,22.6,69.4,2,0.0,0
2022-06-03 23:20:00,22.6,68.4,2,0.0,1
2022-06-03 23:30:00,22.9,67.5,2,0.0,1
2022-06-03 23:40:00,22.4,74.1,2,0.0,1
2022-06-03 23:50:00,22.1,77.9,2,0.0,1
2022-06-04 00:00:00,21.5,81.5,2,0.0,0
2022-06-04 00:10:00,21.5,82.4,2,0.0,1
2022-06-04 00:20:00,21.4,82.8,2,0.0,0
2022-06-04 00:30:00,21.2,84.2,2,0.0,1
2022-06-04 00:40:00,21.1,85.6,2,0.0,1
2022-06-04 00:50:00,21,85.6,2,0.0,0
2022-06-04 01:00:00,21,84.6,2,0.0,0
2022-06-04 01:10:00,20.8,84.6,2,0.0,0
2022-06-04 01:20:00,20.9,84.7,2,0.0,0
2022-06-04 01:30:00,20.6,84.6,2,0.0,0
2022-06-04 01:40:00,20.5,85.6,2,0.0,1
2022-06-04 01:50:00,20.3,87.3,2,0.0,1
2022-06-04 02:00:00,20.3,88.1,2,0.0,0.5
2022-06-04 02:10:00,20.2,87.7,2,0.0,1
2022-06-04 02:20:00,20.1,86.8,2,0.0,1
2022-06-04 02:30:00,20.1,84.9,2,0.0,1
2022-06-04 02:40:00,19.7,83.8,2,0.0,1
2022-06-04 02:50:00,19.5,83.1,2,0.0,1
2022-06-04 03:00:00,19.3,83.4,2,0.0,1
2022-06-04 03:10:00,19.5,83,2,0.0,1
2022-06-04 03:20:00,19.1,81,2,0.0,0
2022-06-04 03:30:00,19.3,79.7,2,0.0,1
2022-06-04 03:40:00,19.2,77.5,0,0.0,1
2022-06-04 03:50:00,19.2,77,2,0.0,1
2022-06-04 04:00:00,19,75.8,2,0.0,0
2022-06-04 04:10:00,19,76,2,0.0,1
2022-06-04 04:20:00,18.9,74.9,2,0.0,1
2022-06-04 04:30:00,18.9,74.2,2,0.0,0
2022-06-04 04:40:00,18.7,74.5,6,0.0,1
2022-06-04 04:50:00,18.6,74.4,42,0.0,0
2022-06-04 05:00:00,18.7,75.6,216,0.0,0.5
2022-06-04 05:10:00,18.6,77.1,999.68,0.0,0
2022-06-04 05:20:00,18.6,75.7,1999.36,0.0,1
2022-06-04 05:30:00,18.6,74.7,2997.76,0.0,1
2022-06-04 05:40:00,18.7,72.5,4999.68,0.0,0
2022-06-04 05:50:00,19,73.5,6999.04,0.0,1
2022-06-04 06:00:00,19.4,70,7997.44,0.0,0
2022-06-04 06:10:00,19.8,68.3,9999.36,0.0,1
2022-06-04 06:20:00,19.8,68.5,10997.8,0.0,0
2022-06-04 06:30:00,19.9,68.1,12994.6,0.0,1
2022-06-04 06:40:00,20.1,68.8,13998.1,0.0,1
2022-06-04 06:50:00,20.5,70.1,14499.8,0.0,1
2022-06-04 07:00:00,20.6,68.9,14991.4,0.0,1
2022-06-04 07:10:00,21.2,66.7,15994.9,0.0,1
2022-06-04 07:20:00,21.5,65.3,16998.4,0.0,1
2022-06-04 07:30:00,21.9,64.4,17991.7,0.0,1
2022-06-04 07:40:00,22.7,62.7,17991.7,0.0,1
2022-06-04 07:50:00,22.8,62.9,21995.5,0.0,1
2022-06-04 08:00:00,23.3,61.8,59965.4,0.0,1
2022-06-04 08:10:00,23.4,62.9,76963.8,0.0,0
2022-06-04 08:20:00,23.3,63.1,76963.8,0.0,1
2022-06-04 08:30:00,23.1,65.5,76963.8,0.0,1
2022-06-04 08:40:00,23.9,61.6,74997.8,0.0,1
2022-06-04 08:50:00,23.8,60.6,71966.7,0.0,3
2022-06-04 09:00:00,24.3,59.7,68976.6,0.0,2
2022-06-04 09:10:00,23.6,62.1,67993.6,0.0,2.5
2022-06-04 09:20:00,24,60.8,64962.6,0.0,1
2022-06-04 09:30:00,24.6,57.6,61481,0.0,2
2022-06-04 09:40:00,25.2,55.1,38481.9,0.0,2
2022-06-04 09:50:00,25.5,53.9,41984,0.0,0.5
2022-06-04 10:00:00,25.3,53.4,47964.2,0.0,2.5
2022-06-04 10:10:00,26,51.4,40489,0.0,2
2022-06-04 10:20:00,25.9,51.8,36495.4,0.0,4
2022-06-04 10:30:00,25.9,53,38993.9,0.0,1
2022-06-04 10:40:00,26.1,52,30986.2,0.0,2
2022-06-04 10:50:00,26.4,49.9,34488.3,0.0,3
2022-06-04 11:00:00,26,49.8,31989.8,0.0,1
2022-06-04 11:10:00,26.1,50.3,30494.7,0.0,3
2022-06-04 11:20:00,26.4,48.3,25989.1,0.0,2
2022-06-04 11:30:00,26.2,49.2,29491.2,0.0,2
2022-06-04 11:40:00,26.7,47.5,27484.2,0.0,1
2022-06-04 11:50:00,26.9,47.7,28999.7,0.0,2
2022-06-04 12:00:00,26.7,47,27484.2,0.0,1
2022-06-04 12:10:00,27,46.8,27996.2,0.0,3
2022-06-04 12:20:00,27.2,45.2,25989.1,0.0,2.5
2022-06-04 12:30:00,27.2,44.8,28999.7,0.0,2
2022-06-04 12:40:00,27.7,41.6,29491.2,0.0,1
2022-06-04 12:50:00,28.5,38.5,30986.2,0.0,2
2022-06-04 13:00:00,28.6,36.3,29982.7,0.0,1
2022-06-04 13:10:00,29.3,40.3,29982.7,0.0,1
2022-06-04 13:20:00,25.9,48.3,33484.8,0.0,5
2022-06-04 13:30:00,26.5,43.8,37498.9,0.0,4
2022-06-04 13:40:00,28,41.5,32993.3,0.0,1
2022-06-04 13:50:00,27.7,42.2,33996.8,0.0,2
2022-06-04 14:00:00,27.4,42,34979.8,0.0,2
2022-06-04 14:10:00,27,42.4,33996.8,0.0,3
2022-06-04 14:20:00,27.2,42.4,24985.6,0.0,2
2022-06-04 14:30:00,26.5,42.8,27996.2,0.0,1
2022-06-04 14:40:00,26.1,44.7,34979.8,0.0,2
2022-06-04 14:50:00,26,46.1,35983.4,0.0,3
2022-06-04 15:00:00,26.4,46.3,35983.4,0.0,2
2022-06-04 15:10:00,26.2,46.2,23982.1,0.0,4
2022-06-04 15:20:00,26.3,45.5,33996.8,0.0,2
2022-06-04 15:30:00,26.7,43.1,39997.4,0.0,2
2022-06-04 15:40:00,26.7,40.7,24494.1,0.0,2.5
2022-06-04 15:50:00,26.6,37.7,32993.3,0.0,2
2022-06-04 16:00:00,26.6,39.9,38993.9,0.0,1
2022-06-04 16:10:00,26.9,40.6,26992.6,0.0,1
2022-06-04 16:20:00,26.7,42.7,29982.7,0.0,2
2022-06-04 16:30:00,26.2,53.5,24985.6,0.0,3
2022-06-04 16:40:00,23.3,70.4,18995.2,0.0,3
2022-06-04 16:50:00,23,72.4,19998.7,0.0,4.5
2022-06-04 17:00:00,23,71.2,33996.8,0.0,3
2022-06-04 17:10:00,22.9,69,20992,0.0,2.5
2022-06-04 17:20:00,23,70.1,22999,0.0,4
2022-06-04 17:30:00,23,71.3,15994.9,0.0,4
2022-06-04 17:40:00,22.8,71.3,15493.1,0.0,1
2022-06-04 17:50:00,23,71.2,16998.4,0.0,1
2022-06-04 18:00:00,23,71.5,20992,0.0,2
2022-06-04 18:10:00,23.5,71.4,16998.4,0.0,1
2022-06-04 18:20:00,22.9,73,8995.84,0.0,2
2022-06-04 18:30:00,22.7,74.5,5995.52,0.0,2
2022-06-04 18:40:00,22.6,74.7,3998.72,0.0,3
2022-06-04 18:50:00,22.7,72.1,2997.76,0.0,0
2022-06-04 19:00:00,22.8,71.4,1999.36,0.0,1
2022-06-04 19:10:00,22.6,72,999.68,0.0,1
2022-06-04 19:20:00,22.5,73.1,499.84,0.0,1
2022-06-04 19:30:00,22.8,74,156,0.0,1
2022-06-04 19:40:00,22.8,74,30,0.0,1
2022-06-04 19:50:00,22.5,73.2,4,0.0,1
2022-06-04 20:00:00,22.6,72.2,2,0.0,0
2022-06-04 20:10:00,22.9,71.4,2,0.0,0
2022-06-04 20:20:00,23,70.1,2,0.0,0
2022-06-04 20:30:00,23.1,71.4,2,0.0,1
2022-06-04 20:40:00,23.1,68.5,2,0.0,0
2022-06-04 20:50:00,23.2,61.9,2,0.0,0
2022-06-04 21:00:00,23.3,61.9,0,0.0,0
2022-06-04 21:10:00,23.3,66.4,2,0.0,1
2022-06-04 21:20:00,23.1,69.4,0,0.0,1
2022-06-04 21:30:00,22.7,73.7,2,0.0,1.5
2022-06-04 21:40:00,22.6,77.2,2,0.0,0